Accueil
METAR-TAF:

METAR-TAF

Aéroports :

Plaisance, Italie

latitude: 44-55N, longitude: 009-44E, altitude: 134 m

Observation

Le bulletin a été fait il y a 34 minutes, à 13:55 UTC
Vent 2 kt de sud/sud-est
Température 17°C
Humidité 72%
Pression 1026 hPa
Visibilité: 8000 m

METAR: LIMS 191355Z 15002KT 8000 NSC 17/12 Q1026 RMK OVC OVC210 VIS MIN 8000 WIND THR30 31001KT BLU

Heure: 16:29 (14:29 UTC)


TAF: absent

Observations et prévisions météorologiques de plus de 4000 aéroports (messages METAR et TAF).

Les stations disponibles sont représentées par des disques jaunes et rouges sur la carte.

Passer la souris dessus pour voir le nom de la station.

Cliquer dessus pour voir les observations et prévisions météorologiques.

Pour changer de carte: cliquez sur les boutons verts avec une croix noire pour zoomer, sur le bouton vert avec un tiret pour effectuer un zoom arrière, ou sur les flèches vertes pour les cartes adjacentes.


METAR-TAF: